(612098) 1999 RM45
ephemeris date magn radius delta ra dec elong phase
Today4 Sep 202625.32.755 AU2.872 AU05h52m+13°01'73.2°20.5°
(612098) 1999 RM45 - 2026-09-04
astro.vanbuitenen.nl


 
-1 year
-1 month
-1 day
Now
+1 day
+1 month
+1 year

The interactive orbit chart above shows the body's path through the solar system and its position at the given date. Green and blue lines are shown perpendicular to the ecliptic plane: Green if the path is above the ecliptic plane, blue if it is below. (Left-click and drag to rotate the view; Right-click and drag to move the view; Use scroll wheel to zoom in our out.)

The orbital elements of 1999 RM45 are:

            e (Eccentricity)                : 0.6446684
            a (Semimajor axis)              : 1.6831474
            i (Inclination)                 : 10.89137
            Ω (Longitude of ascending node) : 162.56767
            ω (Argument of perihelion)      : 89.00427
            M (Mean anomaly)                : 126.17990
            Epoch                           : 2026 Jun 09

            L (Longitude of perihelion)     : 251.55368
            B (Latitude of perihelion)      : 10.88971
            P (Orbital period in years)     : 2.18            
        

The light curve chart below shows the estimated development of the minor planet's magnitude.


The all-sky chart below shows the path of the minor planet over the same period as the light curve. The current position is marked yellow.





The following chart shows the path of the minor planet in the next few days. The field of view is optimized for (~10x50) binoculars and finderscopes.




Ephemerides:
Date       Time       RA (2000)    DEC (2000)    delta   radius  elong  phase   PA    magn
2026-09-04 00:00 UT   05 52 49.0   +13 01 38     2.872    2.755   73.2   20.5   266   25.3 
2026-09-04 03:00 UT   05 52 55.4   +13 01 15     2.870    2.755   73.3   20.5   266   25.3 
2026-09-05 00:00 UT   05 53 39.4   +12 58 33     2.859    2.756   73.9   20.6   266   25.3 
2026-09-06 00:00 UT   05 54 28.9   +12 55 25     2.846    2.757   74.7   20.7   267   25.3 
2026-09-07 00:00 UT   05 55 17.4   +12 52 13     2.832    2.758   75.5   20.7   267   25.3 
2026-09-08 00:00 UT   05 56 05.1   +12 48 57     2.819    2.758   76.2   20.8   267   25.3 
2026-09-09 00:00 UT   05 56 51.9   +12 45 39     2.805    2.759   77.0   20.8   267   25.3 
2026-09-10 00:00 UT   05 57 37.7   +12 42 16     2.792    2.760   77.8   20.9   267   25.3 
2026-09-11 00:00 UT   05 58 22.6   +12 38 50     2.778    2.760   78.5   20.9   268   25.3 
2026-09-12 00:00 UT   05 59 06.5   +12 35 21     2.764    2.761   79.3   21.0   268   25.3 
2026-09-13 00:00 UT   05 59 49.4   +12 31 49     2.751    2.761   80.1   21.0   268   25.3 
2026-09-14 00:00 UT   06 00 31.4   +12 28 13     2.737    2.762   80.9   21.1   268   25.2 
2026-09-15 00:00 UT   06 01 12.3   +12 24 35     2.723    2.763   81.7   21.1   268   25.2 
2026-09-16 00:00 UT   06 01 52.1   +12 20 53     2.709    2.763   82.5   21.1   269   25.2 
2026-09-17 00:00 UT   06 02 30.9   +12 17 08     2.695    2.764   83.3   21.2   269   25.2 
2026-09-18 00:00 UT   06 03 08.7   +12 13 20     2.681    2.764   84.1   21.2   269   25.2 
2026-09-19 00:00 UT   06 03 45.3   +12 09 28     2.667    2.765   84.9   21.2   269   25.2 
2026-09-20 00:00 UT   06 04 20.9   +12 05 34     2.653    2.765   85.7   21.2   270   25.2 
2026-09-21 00:00 UT   06 04 55.3   +12 01 37     2.638    2.765   86.5   21.3   270   25.2 
2026-09-22 00:00 UT   06 05 28.6   +11 57 37     2.624    2.766   87.3   21.3   270   25.2 
2026-09-23 00:00 UT   06 06 00.8   +11 53 35     2.610    2.766   88.2   21.3   270   25.2 
2026-09-24 00:00 UT   06 06 31.7   +11 49 29     2.596    2.766   89.0   21.3   270   25.1 
2026-09-25 00:00 UT   06 07 01.5   +11 45 21     2.581    2.767   89.8   21.3   271   25.1 
2026-09-26 00:00 UT   06 07 30.1   +11 41 10     2.567    2.767   90.7   21.2   271   25.1 
2026-09-27 00:00 UT   06 07 57.4   +11 36 57     2.553    2.767   91.5   21.2   271   25.1 
2026-09-28 00:00 UT   06 08 23.6   +11 32 41     2.538    2.767   92.4   21.2   271   25.1 
2026-09-29 00:00 UT   06 08 48.4   +11 28 22     2.524    2.768   93.2   21.2   272   25.1 
2026-09-30 00:00 UT   06 09 11.9   +11 24 01     2.510    2.768   94.1   21.2   272   25.1 
2026-10-01 00:00 UT   06 09 34.2   +11 19 37     2.495    2.768   95.0   21.1   272   25.1 
2026-10-02 00:00 UT   06 09 55.1   +11 15 11     2.481    2.768   95.8   21.1   272   25.0 
2026-10-03 00:00 UT   06 10 14.7   +11 10 43     2.467    2.768   96.7   21.0   273   25.0 
2026-10-04 00:00 UT   06 10 32.8   +11 06 13     2.452    2.768   97.6   21.0   273   25.0 


    Terminology:
            
    delta:  distance between minor planet and earth in AU
    radius: distance between minor planet and sun in AU
    magn:   magnitude (brightness) estimate    
    ra:     right ascension in hours (24h = 360deg)
    dec:    declination in degrees
    elong:  elongation in degrees (angle sun-earth-minor planet)    
    phase:  phase angle in degrees (angle sun-minor planet-earth)        
    AU:     Astronomical Unit (mean distance between earth and sun: 149597870.7 km
    

Orbital elements provided by the MPC (Minor Planet Center).
Calculations by a modified version of AAPlus, a C# implementation of the AA+ project by PJ Naughter from the algorithms presented in the book "Astronomical Algorithms" by Jean Meeus.
NGC2000 dso catalog and star labels from VizieR as provided by the Strasbourg astronomical Data Center.
Tycho2 catalog from the ESO archive.